HS1WDC-1 Weather Reports


time (UTC)temp
F
wind
direction
speed
knots
gust
knots
rain 1hr
in
rain 24hr
in
rain mn
in
humidity
%
barometer
mb
20260505032218 98 0 0.0 0.0 0.00 0.00 0.00 50 1011.0
20260505030653 97 0 0.0 0.0 0.00 0.00 0.00 51 1011.0
20260505025129 96 0 0.0 0.0 0.00 0.00 0.00 52 1011.0
20260505023605 95 0 0.0 0.0 0.00 0.00 0.00 54 1011.0
20260505022040 96 0 0.0 0.0 0.00 0.00 0.00 53 1011.0
20260505020516 96 0 0.0 0.0 0.00 0.00 0.00 53 1011.0
20260505014952 95 0 0.0 0.0 0.00 0.00 0.00 54 1011.0
20260505013427 94 0 0.0 0.0 0.00 0.00 0.00 56 1011.0
20260505011903 94 0 0.0 0.0 0.00 0.00 0.00 57 1011.0
20260505010339 93 0 0.0 0.0 0.00 0.00 0.00 59 1010.0
20260505004815 92 0 0.0 0.0 0.00 0.00 0.00 59 1010.0
20260505003250 91 0 0.0 0.0 0.00 0.00 0.00 61 1010.0
20260505001726 90 0 0.0 0.0 0.00 0.00 0.00 63 1010.0
20260505000204 90 0 0.0 0.0 0.00 0.00 0.00 64 1010.0
20260504234637 90 0 0.0 0.0 0.00 0.00 0.00 63 1010.0
20260504233113 90 0 0.0 0.0 0.00 0.00 0.00 62 1009.0
20260504231549 89 0 0.0 0.0 0.00 0.00 0.00 62 1009.0
20260504230024 90 0 0.0 0.0 0.00 0.00 0.00 60 1009.0
20260504224500 91 0 0.0 0.0 0.00 0.00 0.00 58 1009.0
20260504222936 90 0 0.0 0.0 0.00 0.00 0.00 59 1008.0
20260504221411 90 0 0.0 0.0 0.00 0.00 0.00 58 1008.0
20260504215847 91 0 0.0 0.0 0.00 0.00 0.00 55 1008.0
20260504214323 92 0 0.0 0.0 0.00 0.00 0.00 55 1008.0
20260504212758 91 0 0.0 0.0 0.00 0.00 0.00 56 1008.0
20260504211234 92 0 0.0 0.0 0.00 0.00 0.00 54 1009.0
20260504205710 92 0 0.0 0.0 0.00 0.00 0.00 57 1009.0
20260504204145 93 0 0.0 0.0 0.00 0.00 0.00 60 1009.0
20260504202621 93 0 0.0 0.0 0.00 0.00 0.00 60 1009.0
20260504201057 92 0 0.0 0.0 0.00 0.00 0.00 61 1009.0
20260504195507 92 0 0.0 0.0 0.00 0.00 0.00 60 1010.0
20260504193942 93 0 0.0 0.0 0.00 0.00 0.00 59 1010.0
20260504192418 91 0 0.0 0.0 0.00 0.00 0.00 62 1010.0
20260504190854 93 0 0.0 0.0 0.00 0.00 0.00 59 1010.0
20260504185329 94 0 0.0 0.0 0.00 0.00 0.00 57 1009.0
20260504183805 94 0 0.0 0.0 0.00 0.00 0.00 58 1010.0
20260504182241 95 0 0.0 0.0 0.00 0.00 0.00 58 1010.0
20260504180717 94 0 0.0 0.0 0.00 0.00 0.00 60 1010.0
20260504175152 94 0 0.0 0.0 0.00 0.00 0.00 60 1010.0
20260504173628 94 0 0.0 0.0 0.00 0.00 0.00 60 1010.0
20260504172104 94 0 0.0 0.0 0.00 0.00 0.00 59 1010.0
20260504170539 94 0 0.0 0.0 0.00 0.00 0.00 58 1009.0
20260504160401 95 0 0.0 0.0 0.00 0.00 0.00 58 1010.0
20260504150224 95 0 0.0 0.0 0.00 0.00 0.00 57 1010.0
20260504080628 107 0 0.0 0.0 0.00 0.00 0.00 40 1005.0
20260504050136 100 0 0.0 0.0 0.00 0.00 0.00 51 1009.0
20260504044612 100 0 0.0 0.0 0.00 0.00 0.00 50 1009.0
20260504043047 100 0 0.0 0.0 0.00 0.00 0.00 47 1009.0
20260504041523 104 0 0.0 0.0 0.00 0.00 0.00 40 1009.0
20260504035958 104 0 0.0 0.0 0.00 0.00 0.00 40 1009.0
20260504034434 103 0 0.0 0.0 0.00 0.00 0.00 41 1009.0
20260504032910 104 0 0.0 0.0 0.00 0.00 0.00 40 1009.0